Tracking 29892 objects as of 21-Nov-2024
HD Live streaming from Space Station
objects crossing your sky now

ONEWEB-0021

Track ONEWEB-0021 now!
10-day predictions
ONEWEB-0021 is classified as:


NORAD ID: 45134
Int'l Code: 2020-008D
Perigee: 1,227.6 km
Apogee: 1,230.1 km
Inclination: 87.9 °
Period: 109.9 minutes
Semi major axis: 7599 km
RCS: Unknown
Launch date: February 6, 2020
Source: United Kingdom (UK)
Launch site: TYURATAM MISSILE AND SPACE COMPLEX (TTMTR)
Your satellite tracking list
Your tracking list is empty




NASA's NSSDC Master Catalog

Two Line Element Set (TLE):
1 45134U 20008D   24325.99811246 -.00000404  00000-0 -11948-2 0  9998
2 45134  87.8891 150.4248 0001650  86.7629 273.3687 13.10371803234455
Source of the keplerian elements: AFSPC